STARLINK-32419, 61637

Orbit data source: Space-Track

STARLINK-32419, 61637 is a payload satellite owned by SpaceX/Seattle (US) in LEO that was launched on Wed, 23 Oct 2024 UTC via an FALCON 9 launch vehicle from the Air Force Eastern Test Range (AFETR). Payload-class satellites include a variety of spacecraft equipped with specific instruments for various scientific and technological missions. These include communications satellites like Starlink; space stations such as the ISS; scientific satellites like the Hubble; Earth observation satellites from companies like Planet Labs, Umbra, and HawkEye 360; GPS; miniature CubeSats for education and research; and military/defense satellites.

Loading next visibility...
Identifier
61637, 2024-191S
Orbit
LEO
Country
Flag of USUS
Related business
Manufacturer
SpaceX/Seattle
Mission
Operational Commercial Communications
Bus & Motor
STARLINK V2M, Unknown motor
Mass
730 kg wet, ~700 kg dry
Launch date (UTC)
2024-10-23 (2 years ago)
Launch vehicle
FALCON 9
Launch site
Air Force Eastern Test Range (AFETR)
Object type
Payload
Rocket body
Debris
Shape & HBR
Box + 2 Pan, 17.7 m
Radar Cross Section
33.884 m², Large (>1 m²)

Expand to show TLE details & history
Last TLE update: 16 hours ago

TLE from 16 hours ago
0 STARLINK-32419
1 61637U 24191S   26263.01250389 -.00000142  00000-0  43736-5 0  9993
2 61637  43.0015 137.2323 0000951 268.0485  92.0258 15.27574913107252
Epoch: 2026-09-20T00:18Z
TLE epoch observation values (Epoch: 2026-09-20T00:18:00.336Z)
Latitude
0.00002°
Longitude
133.81812°
Altitude
482.863 km
Speed
7.626 km/s
True Right ascension
09h 08m 55s
True Declination
0° 00' 00"
Sunlit
Object was in daylight at epoch
Visualization orbit readout
Latitude
Unknown
Longitude
Unknown
Altitude
Unknown
Speed
Unknown
Apparent Right ascension
Unknown
Apparent Declination
Unknown
Sunlit
N/A
Visualization observer readout
Local Sidereal Time
09:13:02
Azimuth
Unknown
Elevation
Unknown
Doppler factor
Unknown
Orbital elements
Apogee altitude
485.662 km
Perigee altitude
484.357 km
Semi-major axis
6,863.146 km
Eccentricity
0.0001
Inclination
43.0015°
RAAN
137.2323°
Arg. of periapsis
268.0485°
True anomaly
92.03669°
Mean anomaly
92.0258°
Eccentric anomaly
92.03125°
Mean motion
3.81732 °/min
Orbital period
94.31 mins
BSTAR
0.0000043736
Loading maneuver chart data...
Computing Atmospheric mass density...
Loading historical data...
Loading historical data...
Loading historical data...
Loading historical data...
Loading historical data...
Loading historical data...
Loading historical data...

Documentation

Showing up to 5 results
|